Weather History for Hailey, ID

Change the Weather History Date:

Saturday, April 5, 2014

  Actual Average Record
Temperature  
Mean Temperature 40 °F -  
Max Temperature 50 °F 49 °F 69 °F (2002)
Min Temperature 30 °F 27 °F 17 °F (1997)
Degree Days  
Heating Degree Days 25    
Moisture  
Dew Point 25 °F    
Average Humidity 64    
Maximum Humidity 80    
Minimum Humidity 30    
Precipitation  
Precipitation 0.00 in - - ()
Sea Level Pressure  
Sea Level Pressure 29.95 in    
Wind  
Wind Speed 8 mph (NW)    
Max Wind Speed 17 mph    
Max Gust Speed 24 mph    
Visibility 10 miles    
Events      
Averages and records for this station are not official NWS values.
T = Trace of Precipitation, MM = Missing Value Source: NWS Daily Summary

Daily Weather History Graph

Daily Weather History Graph

Search for Another Location

Airport:

Trip Planner

Search our weather history database for the weather conditions in past years. The results will help you decide how hot, cold, wet, or windy it might be!

Date:

Astronomy

Apr. 05, 2014 Rise Set
Actual Time 7:11 AM MDT 8:08 PM MDT
Civil Twilight 6:42 AM MDT 8:37 PM MDT
Nautical Twilight 6:07 AM MDT 9:12 PM MDT
Astronomical Twilight 5:31 AM MDT 9:49 PM MDT
Moon 11:16 AM MDT (4/5) 1:28 AM MDT (4/5)
Length of Visible Light 13h 55m
Length of Day
12h 57m
Waxing Crescent, 35% of the Moon is Illuminated
Apr 5
Waxing Crescent
Apr 7
First Quarter
Apr 15
Full
Apr 22
Last Quarter
Apr 29
New

Hourly Weather History & Observations

Time (MDT) Temp. Windchill Dew Point Humidity Pressure Visibility Wind Dir Wind Speed Gust Speed Precip Events Conditions
12:15 AM 33.8 °F 27.7 °F 26.6 °F 75% 29.91 in 10.0 mi NW 6.9 mph - N/A   Clear
12:35 AM 33.8 °F 27.7 °F 26.6 °F 75% 29.92 in 10.0 mi WNW 6.9 mph - N/A   Clear
12:55 AM 33.8 °F 28.6 °F 26.6 °F 75% 29.92 in 10.0 mi NW 5.8 mph - N/A   Clear
1:15 AM 33.8 °F 27.7 °F 26.6 °F 75% 29.91 in 10.0 mi NW 6.9 mph - N/A   Clear
1:35 AM 32.0 °F 26.4 °F 26.6 °F 80% 29.91 in 10.0 mi NW 5.8 mph - N/A   Clear
1:55 AM 32.0 °F 24.8 °F 26.6 °F 80% 29.92 in 10.0 mi WNW 8.1 mph - N/A   Clear
2:15 AM 32.0 °F 26.4 °F 26.6 °F 80% 29.92 in 10.0 mi NW 5.8 mph - N/A   Clear
2:35 AM 32.0 °F 24.8 °F 26.6 °F 80% 29.92 in 10.0 mi NNW 8.1 mph - N/A   Clear
2:55 AM 32.0 °F 24.8 °F 26.6 °F 80% 29.92 in 10.0 mi NW 8.1 mph - N/A   Clear
3:15 AM 32.0 °F 24.2 °F 26.6 °F 80% 29.92 in 10.0 mi NW 9.2 mph - N/A   Clear
3:35 AM 32.0 °F 23.6 °F 26.6 °F 80% 29.91 in 10.0 mi NNW 10.4 mph - N/A   Clear
3:55 AM 32.0 °F 24.8 °F 24.8 °F 75% 29.92 in 10.0 mi NW 8.1 mph - N/A   Scattered Clouds
4:15 AM 32.0 °F 24.2 °F 26.6 °F 80% 29.91 in 10.0 mi NNW 9.2 mph - N/A   Clear
4:35 AM 32.0 °F 24.8 °F 26.6 °F 80% 29.92 in 10.0 mi NNW 8.1 mph - N/A   Clear
4:55 AM 32.0 °F 25.6 °F 26.6 °F 80% 29.92 in 10.0 mi NW 6.9 mph - N/A   Clear
5:15 AM 32.0 °F 25.6 °F 24.8 °F 75% 29.92 in 10.0 mi NW 6.9 mph - N/A   Clear
5:35 AM 32.0 °F 24.2 °F 26.6 °F 80% 29.92 in 10.0 mi NNW 9.2 mph - N/A   Scattered Clouds
5:55 AM 32.0 °F 25.6 °F 24.8 °F 75% 29.92 in 10.0 mi NW 6.9 mph - N/A   Scattered Clouds
6:15 AM 32.0 °F 25.6 °F 24.8 °F 75% 29.92 in 10.0 mi NNW 6.9 mph - N/A   Scattered Clouds
6:35 AM 32.0 °F 26.4 °F 24.8 °F 75% 29.92 in 10.0 mi NNW 5.8 mph - N/A   Clear
6:47 AM 30.2 °F 24.3 °F 23.0 °F 75% 29.93 in 10.0 mi NW 5.8 mph - N/A   Scattered Clouds
7:47 AM 30.2 °F 24.3 °F 24.8 °F 80% 29.94 in 10.0 mi NW 5.8 mph - N/A   Scattered Clouds
8:50 AM 33.8 °F 25.3 °F 24.8 °F 70% 29.96 in 10.0 mi NW 11.5 mph - N/A   Partly Cloudy
9:47 AM 37.4 °F 30.8 °F 24.8 °F 60% 29.96 in 10.0 mi WNW 9.2 mph - N/A   Partly Cloudy
10:47 AM 42.8 °F - 24.8 °F 49% 29.97 in 10.0 mi Calm Calm - N/A   Mostly Cloudy
11:50 AM 44.6 °F 41.4 °F 28.4 °F 53% 29.96 in 10.0 mi East 5.8 mph - N/A   Mostly Cloudy
12:50 PM 42.8 °F 36.6 °F 26.6 °F 53% 29.96 in 7.0 mi SSW 11.5 mph 19.6 mph N/A   Mostly Cloudy
1:48 PM 46.4 °F 40.1 °F 30.2 °F 53% 29.96 in 10.0 mi ESE 15.0 mph 20.7 mph N/A   Scattered Clouds
2:47 PM 48.2 °F - 26.6 °F 43% 29.94 in 10.0 mi South 9.2 mph - N/A   Mostly Cloudy
3:55 PM 48.2 °F - 26.6 °F 43% 29.93 in 10.0 mi North 6.9 mph 16.1 mph N/A   Scattered Clouds
4:47 PM 50.0 °F - 21.2 °F 32% 29.92 in 10.0 mi WNW 9.2 mph - N/A   Scattered Clouds
5:47 PM 50.0 °F - 19.4 °F 30% 29.93 in 10.0 mi WNW 17.3 mph 24.2 mph N/A   Scattered Clouds
6:47 PM 50.0 °F - 19.4 °F 30% 29.94 in 10.0 mi NW 11.5 mph - N/A   Partly Cloudy
7:50 PM 44.6 °F 39.2 °F 21.2 °F 39% 29.96 in 10.0 mi NNW 10.4 mph - N/A   Mostly Cloudy
8:47 PM 44.6 °F 40.7 °F 19.4 °F 37% 29.99 in 10.0 mi NNW 6.9 mph - N/A   Mostly Cloudy
9:47 PM 42.8 °F 38.6 °F 21.2 °F 42% 30.02 in 10.0 mi NNW 6.9 mph - N/A   Mostly Cloudy
10:47 PM 39.2 °F 35.0 °F 23.0 °F 52% 30.03 in 10.0 mi NNW 5.8 mph - N/A   Mostly Cloudy
11:15 PM 37.4 °F 33.8 °F 23.0 °F 56% 30.05 in 10.0 mi NNW 4.6 mph - N/A   Clear
11:35 PM 37.4 °F 33.8 °F 24.8 °F 60% 30.05 in 10.0 mi North 4.6 mph - N/A   Clear
11:55 PM 37.4 °F 32.1 °F 24.8 °F 60% 30.06 in 10.0 mi NNW 6.9 mph - N/A   Clear